Location: Detroit
(42.3310°N, 83.0460°W)
Time: 05:34:35
(UTC-05:00)

BlueWalker 3 - Pass Details

Date: 06 December 2022
Orbit: 499 x 517 km, 53.2° (Epoch: 01 February)

Event Time Altitude Azimuth Distance (km) Brightness Sun altitude
Rises 19:25:30 0° 309° (NW) 2,623 6.2 -26.2°
Reaches altitude 10° 19:27:45 10° 314° (NW) 1,731 5.1 -26.6°
Enters shadow 19:29:17 22° 322° (NW) 1,157 4.0 -26.9°
